Location: Sweet Grass
(48.9965°N, 111.9649°W)
Time: 08:18:51
(UTC+00:00)

N. Korean satellite - Pass Details

Date: 06 December 2022
Orbit: 407 x 442 km, 97.3° (Epoch: 04 February)

Event Time Altitude Azimuth Distance (km) Brightness Sun altitude
Rises 13:05:35 0° 10° (N) 2,516 10.2 -18.9°
Reaches altitude 10° 13:07:40 10° 8° (N) 1,630 9.2 -18.6°
Maximum altitude 13:11:08 66° 286° (WNW) 507 6.3 -18.0°
Drops below altitude 10° 13:14:32 10° 203° (SSW) 1,590 9.1 -17.5°
Sets 13:16:32 0° 201° (SSW) 2,448 10.1 -17.2°
